Flag for China

Past Weather in Tianjin, Tianjin Municipality, China — Yesterday and Last 2 Weeks

Now
82 °F

Fog.


Feels Like: 87 °F
Forecast: 80 / 75 °F
Wind: 6 mph from Southwest

Location: Tianjin / Zhangguizhu

Current Time: Jul 11, 2020 at 12:27:09 pm

Latest Report: Jul 11, 2020 at 12:00 pm


Visibility: 2 mi

Pressure: 29.74 "Hg

Humidity: 70%

Dew Point: 72 °F

Location of TianjinLocation

Past Weather in Tianjin — Graph

°F

Tianjin Temperature Yesterday

Maximum temperature yesterday: 82 °F (at 1:00 pm)
Minimum temperature yesterday: 68 °F (at 12:00 am)
Average temperature yesterday: 75 °F

High & Low Weather Summary for the Past Weeks

 TemperatureHumidityPressure
High93 °F (Jun 30, 3:30 pm)100% (Jul 5, 9:30 pm)29.83 "Hg (Jul 5, 9:30 pm)
Low66 °F (Jul 9, 8:00 pm)28% (Jul 1, 1:30 pm)29.39 "Hg (Jul 5, 5:00 pm)
Average79 °F68%29.64 "Hg
* Reported Jun 26 11:00 am — Jul 11 11:00 am, Tianjin. Weather by CustomWeather, © 2020

Note: Actual official high and low records may vary slightly from our data, if they occured in-between our weather recording intervals... More about our weather records

Tianjin Weather History for the Previous 24 Hours

Scroll right to see more
 ConditionsComfort  
Time TempWeatherWind HumidityBarometerVisibility
11:00 am
Sat, Jul 11
81 °FFog.3 mph79%29.74 "Hg2 mi
10:30 am81 °FFog.3 mph79%29.74 "Hg2 mi
10:00 am81 °FFog.3 mph79%29.74 "Hg1 mi
9:30 am79 °FFog.3 mph84%29.74 "Hg1 mi
8:30 am79 °FFog.1 mph84%29.74 "Hg1 mi
8:00 am77 °FFog.3 mph89%29.71 "Hg1 mi
7:30 am77 °FFog.1 mph89%29.71 "Hg1 mi
7:00 am77 °FFog.1 mph89%29.71 "Hg1 mi
6:30 am75 °FFog.1 mph94%29.71 "Hg1 mi
6:00 am75 °FFog.1 mph94%29.71 "Hg1 mi
5:30 am73 °FFog.1 mph100%29.68 "Hg1 mi
5:00 am73 °FFog.1 mph100%29.68 "Hg1 mi
4:30 am73 °FFog.3 mph100%29.68 "Hg1 mi
4:00 am75 °FFog.1 mph94%29.68 "Hg1 mi
3:30 am75 °FFog.1 mph94%29.65 "Hg1 mi
3:00 am75 °FFog.3 mph94%29.65 "Hg1 mi
2:30 am75 °FFog.6 mph94%29.65 "Hg1 mi
2:00 am75 °FFog.8 mph94%29.65 "Hg1 mi
1:30 am73 °FFog.3 mph100%29.65 "Hg1 mi
1:00 am75 °FFog.3 mph94%29.65 "Hg1 mi
12:30 am75 °FFog.3 mph94%29.68 "Hg1 mi
12:00 am75 °FLight rain. Fog.3 mph94%29.68 "Hg1 mi
11:30 pm
Fri, Jul 10
77 °FLight rain. Fog.1 mph83%29.71 "Hg1 mi
11:00 pm77 °FLight rain. Fog.3 mph83%29.71 "Hg1 mi
10:30 pm77 °FLight rain. Fog.3 mph83%29.68 "Hg2 mi
10:00 pm77 °FFog.3 mph83%29.68 "Hg2 mi
9:30 pm77 °FFog.3 mph83%29.68 "Hg2 mi
9:00 pm77 °FFog.3 mph83%29.68 "Hg2 mi
8:00 pm77 °FFog.3 mph79%29.65 "Hg2 mi
7:30 pm79 °FFog.3 mph74%29.65 "Hg2 mi
7:00 pm79 °FFog.3 mph74%29.62 "Hg2 mi
6:30 pm79 °FOvercast.3 mph74%29.62 "Hg2 mi
6:00 pm79 °FOvercast.6 mph74%29.62 "Hg2 mi
5:30 pm79 °FOvercast.6 mph70%29.62 "Hg3 mi
5:00 pm79 °FOvercast.8 mph70%29.62 "Hg3 mi
4:30 pm79 °FOvercast.8 mph70%29.62 "Hg3 mi
4:00 pm81 °FOvercast.8 mph70%29.62 "Hg4 mi
3:30 pm81 °FOvercast.6 mph66%29.62 "Hg3 mi
3:00 pm81 °FOvercast.3 mph66%29.62 "Hg3 mi
2:30 pm82 °FOvercast.3 mph62%29.62 "Hg3 mi
2:00 pm81 °FOvercast.3 mph66%29.62 "Hg3 mi
1:30 pm81 °FOvercast.3 mph62%29.62 "Hg3 mi
1:00 pm82 °FPartly sunny.3 mph58%29.62 "Hg4 mi
12:30 pm81 °FPartly sunny.3 mph62%29.65 "Hg3 mi
12:00 pm81 °FPartly sunny.1 mph66%29.65 "Hg3 mi
Weather by CustomWeather, © 2020

See weather overview